Weather in Kolos

Russia / Saratov Oblast     51°45′59″N   47°15′32″E
temp.,
°C
wind,
m/s
gust,
m/s
humid.,
%
clouds,
%
prec.,
mm/h
press.,
hPa
HPBL,
m
25 october, mon
mon2501:00+5wsw496796 0.0 1016225
04:00+3wnw4981100 0.0 1016302
07:00+3wnw5997100 1.6 1017507
10:00+4nw796746 2.3 1019936
13:00+5nnw795896 0.0 10211197
16:00+5nnw786095 0.0 10231192
19:00+4nnw6860100 0.0 10261315
22:00+1nnw37675 0.0 1028190
26 october, tue
tue2601:000nnw3771100 0.0 1029172
04:00−1nnw34735 0.0 103059
07:00−2wnw22745 0.0 103125
10:00+1w35595 0.0 1031326
13:00+5w56415 0.0 1030782
16:00+6wsw57355 0.0 1028936
19:00+3wsw484965 0.0 1029141
22:00+2wsw49535 0.0 1029172
27 october, wed
wed2701:00+1wsw495911 0.0 1029168
04:00+1wsw496283 0.0 1029164
07:000wsw496410 0.0 1029157
10:00+4wsw5104936 0.0 1029350
13:00+9wsw79355 0.0 1028704
16:00+9wsw69335 0.0 1026796
19:00+5sw512435 0.0 1026235
22:00+4sw613440 0.0 1025274
28 october, thu
thu2801:00+3sw614485 0.0 1024336
04:00+3sw6144793 0.0 1023341
07:00+3wsw61247100 0.0 1023310
10:00+5wsw61046100 0.0 1023393
13:00+8w6849100 0.0 1023578
16:00+8wsw5853100 0.0 1022700
19:00+6wsw496696 0.0 1022200
22:00+5wsw497477 0.0 1021195
29 october, fri
fri2901:00+5sw497593 0.0 1020224
04:00+6wsw51172100 0.1 1019379
07:00+6wsw5975100 0.0 1019265
10:00+6w4790100 1.4 1020300
13:00+7wnw3690100 0.4 1021293
16:00+8n3789100 0.4 1023369
19:00+6ne598296 0.1 1026656
22:00+3ne695851 0.1 1029468